Вернуться в каталог

COSMOS 970 DEB

АктивенLEO
NORAD 10878·DEBRIS·🇷🇺 Russia

Запущен Dec 21, 1977 с Baikonur Cosmodrome

Loading…

Ближайшие Пролёты (ближайшие 24 часа)

TLE

СвежийSource: Space-Track

Эпоха: Sep 14, 2026, 21:07 UTC

1 10878U 77121Z   26257.88015228  .00000060  00000-0  16291-3 0  9996
2 10878  65.8389 210.4411 0114746 179.7415 211.5975 13.65277820421081

Отслеживайте COSMOS 970 DEB в реальном времени с AllMySat

Download on the App Store